Presure
288 310 336 258 246 174 209 211 197 185 179 193 185 191 184 177 180 183 171 167 161 157 157 152 151 153 159 159 160 159 151 157 162 162 159 156 171 173 171 173 173 171 184 187
308 285 324 356 264 244 217 209 212 197 201 181 194 186 189 180 186 179 175 173 168 163 162 153 165 163 164 164 165 166 161 150 166 168 168 170 177 178 180 185 183 176 188 176
309 289 324 336 305 265 232 219 217 212 213 194 177 192 192 172 192 180 180 180 174 169 169 166 165 167 165 162 162 162 166 171 178 178 182 180 177 173 179 182 182 182 187 191
301 308 276 302 354 245 265 223 217 220 199 219 191 179 193 195 188 188 185 184 176 179 178 176 176 177 177 178 173 173 176 179 177 175 179 188 191 196 196 200 195 194 191 202
311 301 307 295 322 371 256 250 217 214 223 199 218 201 181 182 193 196 185 186 182 175 176 160 150 151 164 139 140 142 145 168 182 187 196 177 174 154 186 191 192 182 210 236
304 301 298 313 308 331 313 250 242 221 214 223 191 222 195 188 185 178 190 187 177 174 183 158 180 172 163 170 176 175 173 178 180 153 170 189 192 189 196 195 231 237 226 186
288 302 321 316 315 324 332 286 250 242 222 218 225 218 178 207 179 192 186 181 187 189 190 162 181 184 179 174 178 181 186 187 188 187 189 188 204 205 202 207 176 228 220 224
287 294 296 299 317 325 329 304 266 254 244 229 219 224 237 215 214 204 194 192 195 193 183 183 184 185 188 189 188 185 187 192 197 196 208 212 213 219 187 178 188 202 220 217
281 278 290 287 298 327 313 326 297 268 250 242 231 227 164 226 214 201 197 191 180 202 201 195 194 191 188 195 195 192 197 177 174 178 182 211 186 180 174 215 222 226 230 232
295 298 294 294 298 310 321 329 318 291 276 249 238 239 235 227 223 216 216 222 222 202 192 199 156 205 205 206 206 183 199 202 204 205 200 196 207 219 223 235 229 187 245 242
275 291 289 287 283 301 303 312 312 291 267 262 264 263 247 234 234 229 228 226 220 222 225 229 231 213 183 227 226 222 224 233 197 224 219 223 236 131 233 185 248 297 277 311
271 269 271 288 280 270 274 291 297 299 269 258 256 261 253 250 248 246 242 231 229 225 237 235 226 219 229 231 235 229 222 224 216 222 231 223 237 234 240 297 294 278 273 358
268 274 271 270 272 274 290 285 272 297 273 258 254 252 250 244 243 239 239 242 240 228 221 223 228 229 233 234 225 224 231 228 233 224 231 233 241 283 289 275 285 247 250 334
270 265 263 264 272 278 276 281 278 269 295 263 250 247 247 248 242 239 235 236 238 236 232 137 228 236 236 233 231 232 155 225 229 229 249 287 275 280 286 274 249 259 248 285
280 275 269 274 264 266 265 275 273 294 289 287 264 243 242 237 237 235 231 231 232 236 237 235 231 229 230 230 233 237 253 203 268 280 290 265 265 264 270 257 253 225 227 233
275 275 287 281 271 265 269 264 262 260 269 278 273 271 253 234 236 237 241 236 238 240 242 250 259 251 254 260 260 265 265 272 280 273 258 257 254 265 266 249 242 237 239 268
266 269 275 281 282 281 286 257 251 248 256 261 260 252 252 257 263 239 241 248 249 249 245 240 253 256 255 265 266 262 257 270 261 250 250 248 260 262 251 228 265 263 262 225
276 268 267 266 267 269 267 268 280 264 245 247 259 259 253 249 249 245 240 240 244 252 250 246 251 251 258 252 245 268 256 252 249 241 241 260 258 254 251 261 254 245 238 241
283 270 263 261 266 276 273 271 262 259 257 254 248 252 253 249 250 250 252 256 252 251 248 257 260 260 277 274 256 255 246 244 236 244 243 262 258 248 254 222 227 237 233 227
244 279 268 259 250 257 265 266 266 267 266 274 253 246 250 249 251 253 258 260 264 269 262 256 266 270 261 244 242 233 234 246 236 235 256 256 242 245 258 245 228 215 225 238
288 291 285 272 256 257 250 255 260 260 258 264 264 265 265 264 265 267 260 252 248 252 258 261 262 240 246 235 239 229 235 258 243 243 260 232 245 251 244 215 232 223 238 212
256 269 288 292 283 274 266 243 244 248 254 257 258 258 257 256 255 255 251 249 251 253 256 248 229 228 237 234 243 237 250 242 238 245 267 225 211 250 223 235 226 225 210 203
253 255 259 267 277 283 286 279 267 263 254 251 252 247 249 247 246 267 260 252 247 244 227 217 234 236 236 225 232 235 247 243 217 203 204 202 221 226 233 232 230 229 216 203
250 248 251 252 258 263 269 275 282 283 283 285 279 276 277 269 264 252 244 235 217 229 227 236 233 233 227 234 240 234 245 228 241 205 203 204 221 225 228 228 235 226 216 206
249 245 242 234 234 231 231 231 227 230 233 235 241 246 240 240 220 217 221 234 227 232 237 233 236 229 227 228 245 233 252 235 231 230 224 222 220 226 227 228 232 230 221 210
245 245 236 238 225 223 226 253 263 266 273 227 221 227 223 229 235 236 228 228 229 235 237 226 243 226 227 235 239 230 279 236 221 217 240 235 231 231 229 227 231 242 227 212
Wind_Speed
96 81 71 120 128 80 116 119 114 109 104 116 109 115 106 103 105 105 97 99 100 100 99 92 86 92 97 98 99 100 85 94 100 102 104 98 109 106 104 103 102 103 102 103
77 92 63 59 125 129 119 118 117 112 120 103 113 105 111 106 111 103 99 99 99 100 99 88 102 102 104 104 102 105 99 84 106 108 107 105 108 106 103 103 100 97 103 96
67 80 51 64 92 121 124 123 121 118 124 113 100 113 113 96 113 102 100 101 99 98 99 98 98 101 102 100 99 99 100 103 107 105 104 103 102 94 99 101 100 99 103 105
68 67 89 75 58 113 120 121 117 119 113 127 110 100 112 113 108 108 104 102 94 103 103 102 103 105 105 106 105 104 104 104 102 99 100 109 111 112 111 111 107 105 102 110
58 64 58 77 56 54 113 124 116 114 117 109 125 118 100 101 111 112 104 104 102 95 96 82 76 78 89 72 73 73 74 91 107 109 114 91 86 79 103 107 107 96 116 103
44 57 64 66 73 61 87 115 125 122 113 115 101 119 110 107 100 94 106 103 94 90 99 83 102 95 87 93 101 102 101 103 102 77 91 109 112 108 113 111 113 102 108 99
48 42 30 48 56 62 67 97 116 125 121 111 117 113 87 118 98 110 105 97 104 106 108 82 101 105 102 97 103 107 109 106 107 108 110 108 118 116 111 106 96 103 106 105
38 35 34 35 34 50 57 81 106 112 121 123 113 111 113 113 117 116 110 108 111 111 101 102 102 103 107 109 109 104 107 111 114 115 118 117 115 114 104 99 104 110 107 107
50 49 39 45 39 34 61 68 83 100 110 118 121 112 76 111 109 109 109 107 97 114 115 111 111 109 106 113 113 109 113 96 93 95 98 108 101 99 96 101 105 108 110 112
39 39 43 40 39 33 40 58 73 80 87 105 112 114 115 113 110 108 109 113 116 110 104 110 79 115 116 117 117 98 110 112 110 105 108 107 103 103 102 106 109 85 116 117
36 39 38 38 36 26 31 39 52 75 82 88 90 93 101 109 112 113 112 111 109 109 110 110 110 107 98 109 109 112 111 102 104 101 103 101 99 56 103 83 118 101 83 97
33 34 35 38 38 40 40 33 39 63 78 81 84 79 86 89 94 99 103 107 106 104 103 104 104 106 104 101 98 98 102 100 101 99 96 97 102 103 111 85 80 83 86 68
33 38 37 38 37 37 33 37 45 47 74 76 79 79 79 83 87 91 93 93 98 103 98 97 98 98 98 96 95 95 98 96 97 93 99 101 99 81 71 73 66 84 86 62
36 37 36 38 38 36 34 35 39 48 49 78 78 79 77 80 83 84 86 87 89 92 95 52 96 96 93 92 94 95 61 94 97 101 98 72 71 64 57 58 71 67 76 48
40 40 39 43 39 36 37 29 28 38 46 47 77 74 74 76 76 80 81 83 85 86 88 89 89 89 90 92 95 99 96 66 76 68 56 61 61 60 52 52 49 65 64 59
28 33 38 45 41 39 37 37 35 33 32 38 47 60 78 75 80 80 77 81 82 82 83 83 79 81 82 76 74 71 68 64 56 52 56 57 57 51 46 46 48 51 46 43
29 27 25 29 33 36 39 43 42 43 41 46 53 59 63 62 66 78 81 82 81 77 75 75 74 69 67 66 62 59 57 47 50 50 53 53 51 43 40 46 37 33 37 40
31 29 27 26 26 30 34 33 38 43 44 46 42 49 56 59 62 66 69 70 71 69 66 65 64 59 58 56 56 42 48 50 47 49 51 47 44 39 37 36 32 31 35 37
33 30 29 27 25 27 31 35 37 39 40 46 47 47 49 53 55 56 58 62 66 64 62 58 56 50 41 37 42 42 51 47 47 47 47 38 35 32 35 35 34 31 29 31
19 34 32 30 26 25 27 29 31 33 35 38 48 47 48 51 52 53 51 49 47 44 47 49 39 36 34 40 43 50 50 46 43 43 38 36 34 32 30 26 30 30 31 30
17 26 33 37 31 30 28 27 29 29 33 33 36 38 43 45 43 37 35 36 39 40 37 35 33 34 34 41 42 50 45 39 40 38 36 33 34 34 27 31 28 28 31 31
17 17 22 28 34 36 37 31 30 32 31 31 32 34 35 37 37 35 37 36 34 33 33 30 35 39 37 40 39 44 40 37 35 34 32 30 30 30 31 30 30 29 30 33
19 20 20 21 23 29 31 35 36 36 33 32 33 33 33 33 33 32 31 31 31 30 32 40 34 35 36 42 39 39 36 36 30 29 29 32 33 33 31 33 33 31 32 35
23 22 22 21 23 24 25 25 26 27 29 29 30 31 31 31 31 30 28 29 33 32 34 32 34 37 40 39 36 36 35 33 33 32 33 33 34 35 35 35 34 33 34 37
28 27 28 27 26 25 24 23 23 24 24 25 25 25 25 27 27 29 31 31 32 32 29 33 34 37 39 37 34 35 34 33 33 33 34 35 36 37 37 37 36 34 34 38
32 29 30 29 29 26 27 29 31 31 31 26 24 25 26 27 28 29 31 32 32 31 31 35 31 36 39 37 34 33 29 33 34 34 35 37 37 38 39 39 38 37 35 38
Wind_Direction
212 212 213 213 214 222 218 220 219 224 227 227 229 226 229 234 235 234 233 234 238 243 246 251 254 255 255 257 258 260 266 268 267 267 267 271 269 271 273 274 276 277 280 282
204 213 211 214 213 215 217 221 220 223 225 229 229 231 228 233 233 236 237 237 238 241 244 247 248 252 254 257 260 262 263 265 263 264 267 271 272 274 276 278 280 280 283 282
202 212 215 218 213 214 216 220 223 220 222 227 230 231 231 233 232 238 238 239 240 243 245 248 250 252 254 256 259 261 264 264 265 268 270 270 273 275 279 281 282 282 283 285
202 202 216 218 221 214 215 220 223 224 222 224 229 232 233 233 236 236 239 240 242 242 244 246 249 251 254 256 258 260 263 265 268 269 272 274 276 279 280 282 283 283 284 286
199 206 201 217 221 215 215 217 223 227 226 226 226 230 234 237 236 237 241 241 242 246 247 250 252 255 257 261 263 264 265 268 270 272 273 278 279 273 283 284 285 284 288 287
204 209 215 214 221 218 213 218 219 225 229 228 228 228 231 237 239 243 243 242 246 249 248 248 251 255 258 261 262 264 267 269 272 272 276 278 280 281 282 284 285 284 285 284
206 207 209 221 222 222 213 216 221 222 228 231 232 231 231 234 238 241 244 247 248 249 249 251 255 255 257 261 263 265 267 270 272 275 276 277 278 280 282 283 282 284 284 286
188 182 195 210 218 219 217 216 220 223 225 230 234 235 235 235 236 239 243 246 247 249 252 254 256 258 259 260 262 267 269 269 271 273 274 276 278 280 281 283 284 283 285 284
206 213 205 217 219 212 220 215 217 223 226 228 234 236 235 237 237 240 242 245 249 249 250 253 255 258 260 261 263 266 267 269 271 273 276 276 278 280 281 284 284 285 284 283
195 201 214 219 225 219 215 221 217 219 224 231 233 236 238 241 242 242 243 245 246 249 253 254 256 257 259 261 262 266 267 268 271 273 275 277 280 280 284 286 285 286 286 285
215 203 209 207 221 213 220 217 220 216 223 229 232 234 238 241 242 245 247 248 248 249 251 253 255 257 260 262 262 264 266 271 273 276 276 278 285 277 286 286 288 289 290 287
217 221 223 216 219 227 221 205 214 218 220 226 231 231 235 239 242 245 247 249 251 253 256 257 256 257 260 263 267 266 269 272 272 276 282 280 285 285 287 290 294 294 291 300
219 217 222 227 232 232 226 225 220 216 218 223 228 231 232 236 240 243 247 249 251 254 256 259 262 264 266 269 269 272 277 277 280 278 283 284 286 287 291 293 293 291 296 301
213 222 229 231 233 232 235 235 229 218 224 221 227 231 233 235 240 243 246 249 251 254 256 256 261 264 268 269 271 273 273 276 279 281 282 288 286 291 293 290 288 288 291 330
224 224 225 228 230 231 230 231 221 228 224 223 224 230 234 238 240 243 246 248 250 252 254 258 261 263 267 269 270 270 273 276 281 283 286 283 287 291 287 289 295 293 293 302
217 221 227 229 229 228 233 221 206 209 209 214 217 225 231 235 237 241 243 247 250 253 255 258 260 261 264 267 270 274 277 278 282 282 281 284 289 287 290 292 296 299 309 337
215 213 215 221 222 227 226 220 222 220 215 213 216 221 226 230 233 239 243 246 248 251 253 257 260 263 267 270 274 275 276 275 278 279 282 286 287 288 292 287 307 316 327 316
219 216 218 217 220 222 227 230 229 226 225 226 226 227 229 232 234 237 240 244 247 251 254 258 261 266 270 270 274 272 269 271 276 281 284 283 281 292 295 302 305 309 318 327
217 217 218 215 215 218 224 225 224 224 223 223 223 221 223 229 235 237 240 244 246 250 255 259 263 266 269 263 260 266 269 273 278 282 284 279 282 291 296 292 298 308 317 322
224 221 220 219 221 217 215 217 220 223 227 231 230 232 232 234 238 242 247 251 256 255 255 258 264 258 256 258 261 265 272 280 278 282 277 276 281 289 294 292 298 305 315 319
218 221 222 223 222 221 216 218 219 220 224 225 227 230 233 236 238 237 239 242 246 250 256 257 253 251 258 259 262 267 274 275 277 283 279 278 281 288 286 293 300 305 311 312
217 214 217 220 223 228 226 216 218 220 224 225 227 227 227 228 230 232 234 239 245 247 248 248 248 254 258 262 265 269 274 275 276 281 278 281 286 287 289 292 296 301 303 306
213 217 213 207 208 215 220 224 227 228 227 226 227 225 226 227 228 226 228 231 236 243 242 248 253 258 263 261 265 272 275 274 270 275 281 284 289 288 289 293 297 304 307 307
212 211 208 210 209 206 205 210 215 216 217 213 215 217 211 209 209 217 225 234 241 245 250 253 255 259 260 267 273 274 278 269 274 273 277 283 288 288 289 293 295 303 304 307
214 210 203 209 209 214 219 222 223 219 219 219 220 220 220 223 230 236 239 238 244 249 255 254 262 256 260 269 278 274 280 273 274 276 278 282 287 286 290 293 294 298 301 305
217 213 211 212 217 223 227 229 220 216 216 226 230 230 233 235 233 233 238 243 247 253 258 253 265 260 267 276 283 276 290 275 274 277 277 278 281 283 286 289 290 289 298 303